Terminal Aerodrome Forecast
Issued by NWS Cleveland, OH

Home | Current Version | Previous Version | Graphics & Text | Print | Product List | Glossary On
Versions: 1 2 3 4 5 6 7 8 9 10 11 12 13 14 15 16 17 18 19 20 21 22 23 24 25 26 27 28 29 30 31 32 33
000
FTUS41 KCLE 300357 AAB
TAFCLE
TAF AMD
KCLE 300357Z 3004/0106 14007KT P6SM VCSH OVC035
     FM300700 18007KT 6SM BR OVC015
     FM301400 20010KT P6SM OVC015
     FM301900 22010KT P6SM -SHRA OVC030
      TEMPO 3019/3022 4SM -TSRA OVC020CB
     FM010000 22005KT P6SM BKN015 BKN060=

USA.gov is the U.S. government's official web portal to all federal, state and local government web resources and services.